星链-32568 (STARLINK-32568)

导读 | 星芒AI

STARLINK-32568 是 SpaceX 星链计划中的一颗低轨通信卫星,属于第 11 批组网卫星(Batch 11),于 2023 年 6 月发射。该卫星运行在约 550 公里的轨道高度,旨在为全球用户提供高速互联网服务。它采用先进的星间激光通信技术,提升网络效率与覆盖范围。作为星链系统的一部分,STARLINK-32568 有助于构建全球宽带网络,支持偏远地区通信,同时为军事和应急通信提供保障。

基本信息
目录编号:
62128
目录名称:
STARLINK-32568
国际标识:
2024-222Q
轨道中心:
EARTH
卫星名称:
星链-32568
卫星全名:
星链-32568 (STARLINK-32568)
卫星状态:
在轨 (已飞行388 天)
发射日期:
2024-11-27 UTC
国别 :
美国 (US)
星等 :
--
轨道信息
数据来源 国际轨道数据
星历时间: 2025-12-20T07:03:45+0800
11小时前
查看轨道信息
半长轴: 6861.189km
偏心率: 0.0001226
轨道倾角: 42.999°
近地点辐角 255.312°
升交点赤经 226.608°
平近点角 104.759°
近地点: 482.21km
远地点: 483.894km
周期: 94.267分钟
每日圈数: 15.275793
详细信息
固有亮度:
5
最大亮度:
2.5
卫星平台:
Starlink V1.0
覆盖范围:
全球
运营商:
太空探索技术公司
运营商所在国:
美国
制造商(研发单位):
太空探索技术公司
制造商所在国:
美国
使用方式:
暂无
卫星简介
Starlink 计划是 SpaceX 推出的全球卫星互联网项目,通过发射低轨道卫星,为全球尤其是偏远地区提供高速、低延迟的互联网服务。自 2019 年起,Starlink 已部署数千颗卫星,旨在缩小全球数字鸿沟,推动互联网普及。该项目还为军事、航空等行业提供通信支持,带来广泛经济效益。
2D轨道图
3D轨道图
轨道高度分析图
轨道倾角分析图
轨道综合分析图
查看轨道综合分析图